START_TIME,STEP,MOV.,M34,t_acc.,L5,t_acc.,L18,t_acc.,L14,t_acc.
1979-07-23 23:42:24.220 ,0,0,0.,12.0,0.,12.0,0.,12.0,0.,12.0
1979-07-23 23:42:36.220 ,0,0,0.,12.0,0.,12.0,0.,12.0,0.,12.0
1979-07-23 23:42:48.220 ,0,0,0.,12.0,0.,12.0,0.,12.0,0.,12.0
1979-07-23 23:43:00.220 ,0,0,0.,12.0,0.,12.0,0.,12.0,0.,12.0
1979-07-23 23:43:12.220 ,4,1,0.,12.0,0.,12.0,0.,12.0,0.,12.0
1979-07-23 23:43:24.220 ,4,1,0.,12.0,0.,12.0,0.,12.0,0.,12.0
1979-07-23 23:43:36.220 ,4,0,0.,12.0,0.,12.0,0.,12.0,0.,12.0
1979-07-23 23:43:48.220 ,4,0,0.,12.0,0.,12.0,0.,12.0,0.,12.0
1979-07-23 23:44:00.220 ,3,1,0.,12.0,0.,12.0,0.,12.0,0.,12.0
1979-07-23 23:44:12.220 ,3,1,0.,12.0,0.,12.0,0.,12.0,0.,12.0
1979-07-23 23:44:24.220 ,3,0,0.,12.0,0.,12.0,0.,12.0,0.,12.0
1979-07-23 23:44:36.220 ,3,0,0.,12.0,0.,12.0,0.,12.0,0.,12.0
1979-07-23 23:44:48.220 ,2,1,0.,12.0,0.,12.0,0.,12.0,0.,12.0
1979-07-23 23:45:00.220 ,2,1,0.,12.0,0.,12.0,0.,12.0,0.,12.0
1979-07-23 23:45:12.220 ,2,0,0.,12.0,0.,12.0,0.,12.0,0.,12.0
1979-07-23 23:45:24.220 ,2,0,0.,12.0,0.,12.0,0.,12.0,0.,12.0
1979-07-23 23:45:12.220 ,2,0,0.,12.0,0.,12.0,0.,12.0,0.,12.0
1979-07-23 23:45:24.220 ,2,0,0.,12.0,0.,12.0,0.,12.0,0.,12.0
1979-07-23 23:45:36.220 ,1,1,0.,12.0,0.,12.0,0.,12.0,0.,12.0
1979-07-23 23:45:48.220 ,1,1,0.,12.0,0.,12.0,0.,12.0,0.,12.0
1979-07-23 23:46:00.220 ,1,0,0.,12.0,0.,12.0,0.,12.0,0.,12.0
1979-07-23 23:46:12.220 ,1,0,0.,12.0,0.,12.0,0.,12.0,0.,12.0
1979-07-23 23:46:24.220 ,0,1,0.,12.0,0.,12.0,0.,12.0,0.,12.0
1979-07-23 23:46:36.220 ,0,1,0.,12.0,0.,12.0,0.,12.0,0.,12.0
1979-07-23 23:46:48.220 ,0,0,1.,12.0,0.,12.0,0.,12.0,0.,12.0
1979-07-23 23:47:00.220 ,0,0,0.,12.0,0.,12.0,0.,12.0,0.,12.0
1979-07-23 23:47:12.220 ,0,1,0.,12.0,0.,12.0,0.,12.0,0.,12.0
1979-07-23 23:47:24.220 ,0,1,0.,12.0,0.,12.0,0.,12.0,0.,12.0
1979-07-23 23:47:36.220 ,0,0,0.,12.0,0.,12.0,0.,12.0,0.,12.0
1979-07-23 23:47:48.220 ,0,0,0.,12.0,0.,12.0,0.,12.0,0.,12.0
1979-07-23 23:48:00.220 ,1,1,0.,12.0,0.,12.0,0.,12.0,0.,12.0
1979-07-23 23:48:12.220 ,1,1,0.,12.0,0.,12.0,0.,12.0,0.,12.0
1979-07-23 23:48:24.220 ,1,0,0.,12.0,0.,12.0,0.,12.0,0.,12.0
1979-07-23 23:48:36.220 ,1,0,1.,12.0,0.,12.0,0.,12.0,0.,12.0
1979-07-23 23:48:48.220 ,2,1,1.,12.0,0.,12.0,0.,12.0,0.,12.0
1979-07-23 23:49:00.220 ,2,1,0.,12.0,0.,12.0,0.,12.0,0.,12.0
1979-07-23 23:49:12.220 ,2,0,0.,12.0,0.,12.0,0.,12.0,0.,12.0
1979-07-23 23:49:24.220 ,2,0,0.,12.0,0.,12.0,0.,12.0,0.,12.0
1979-07-23 23:49:36.220 ,3,1,0.,12.0,0.,12.0,0.,12.0,0.,12.0
1979-07-23 23:49:48.220 ,3,1,0.,12.0,0.,12.0,0.,12.0,0.,12.0
1979-07-23 23:50:00.220 ,3,0,0.,12.0,0.,12.0,0.,12.0,0.,12.0
1979-07-23 23:50:12.220 ,3,0,0.,12.0,0.,12.0,0.,12.0,0.,12.0
1979-07-23 23:50:24.220 ,4,1,0.,12.0,0.,12.0,0.,12.0,0.,12.0
1979-07-23 23:50:36.220 ,4,1,1.,12.0,0.,12.0,0.,12.0,0.,12.0
1979-07-23 23:50:48.220 ,4,0,0.,12.0,0.,12.0,0.,12.0,0.,12.0
1979-07-23 23:51:00.220 ,4,0,1.,12.0,0.,12.0,0.,12.0,0.,12.0
1979-07-23 23:51:12.220 ,5,1,0.,12.0,0.,12.0,0.,12.0,0.,12.0
1979-07-23 23:51:24.220 ,5,1,0.,12.0,0.,12.0,0.,12.0,0.,12.0
1979-07-23 23:51:36.220 ,5,0,0.,12.0,0.,12.0,0.,12.0,0.,12.0
1979-07-23 23:51:48.220 ,5,0,1.,12.0,0.,12.0,0.,12.0,0.,12.0
1979-07-23 23:52:00.220 ,6,1,0.,12.0,0.,12.0,0.,12.0,0.,12.0
1979-07-23 23:52:12.220 ,6,1,0.,12.0,0.,12.0,0.,12.0,0.,12.0
1979-07-23 23:52:24.220 ,6,0,0.,12.0,0.,12.0,0.,12.0,0.,12.0
1979-07-23 23:52:36.220 ,6,0,0.,12.0,0.,12.0,0.,12.0,0.,12.0
1979-07-23 23:52:48.220 ,7,1,0.,12.0,0.,12.0,0.,12.0,0.,12.0
1979-07-23 23:53:00.220 ,7,1,0.,12.0,0.,12.0,0.,12.0,0.,12.0
1979-07-23 23:53:12.220 ,7,0,0.,12.0,0.,12.0,0.,12.0,0.,12.0
1979-07-23 23:53:24.220 ,7,0,0.,12.0,0.,12.0,0.,12.0,0.,12.0
1979-07-23 23:53:36.220 ,7,1,0.,12.0,0.,12.0,0.,12.0,0.,12.0
1979-07-23 23:53:48.220 ,7,1,0.,12.0,0.,12.0,0.,12.0,0.,12.0
1979-07-23 23:54:00.220 ,7,0,0.,12.0,0.,12.0,0.,12.0,0.,12.0
1979-07-23 23:54:12.220 ,7,0,0.,12.0,0.,12.0,0.,12.0,0.,12.0
1979-07-23 23:54:24.220 ,6,1,0.,12.0,0.,12.0,0.,12.0,0.,12.0
1979-07-23 23:54:36.220 ,6,1,0.,12.0,0.,12.0,0.,12.0,0.,12.0
1979-07-23 23:54:48.220 ,6,0,0.,12.0,0.,12.0,0.,12.0,0.,12.0
1979-07-23 23:55:00.220 ,6,0,0.,12.0,0.,12.0,0.,12.0,0.,12.0
1979-07-23 23:55:12.220 ,5,1,0.,12.0,0.,12.0,0.,12.0,0.,12.0
1979-07-23 23:55:24.220 ,5,1,0.,12.0,0.,12.0,0.,12.0,0.,12.0
1979-07-23 23:55:36.220 ,5,0,0.,12.0,0.,12.0,0.,12.0,0.,12.0
1979-07-23 23:55:48.220 ,5,0,0.,12.0,0.,12.0,0.,12.0,0.,12.0
1979-07-23 23:56:00.220 ,4,1,0.,12.0,0.,12.0,0.,12.0,0.,12.0
1979-07-23 23:56:12.220 ,4,1,0.,12.0,0.,12.0,0.,12.0,0.,12.0
1979-07-23 23:56:24.220 ,4,0,0.,12.0,0.,12.0,0.,12.0,0.,12.0
1979-07-23 23:56:36.220 ,4,0,0.,12.0,0.,12.0,0.,12.0,0.,12.0
1979-07-23 23:56:48.220 ,3,1,0.,12.0,0.,12.0,0.,12.0,0.,12.0
1979-07-23 23:57:00.220 ,3,1,0.,12.0,0.,12.0,0.,12.0,0.,12.0
1979-07-23 23:57:12.220 ,3,0,0.,12.0,0.,12.0,0.,12.0,0.,12.0
1979-07-23 23:57:24.220 ,3,0,1.,12.0,0.,12.0,0.,12.0,0.,12.0
1979-07-23 23:57:36.220 ,2,1,0.,12.0,0.,12.0,0.,12.0,0.,12.0
1979-07-23 23:57:48.220 ,2,1,0.,12.0,0.,12.0,0.,12.0,0.,12.0
1979-07-23 23:58:00.220 ,2,0,0.,12.0,0.,12.0,0.,12.0,0.,12.0
1979-07-23 23:58:12.220 ,2,0,0.,12.0,0.,12.0,0.,12.0,0.,12.0
1979-07-23 23:58:24.220 ,1,1,0.,12.0,0.,12.0,0.,12.0,0.,12.0
1979-07-23 23:58:36.220 ,1,1,0.,12.0,0.,12.0,0.,12.0,0.,12.0
1979-07-23 23:58:48.220 ,1,0,1.,12.0,0.,12.0,0.,12.0,0.,12.0
1979-07-23 23:59:00.220 ,1,0,0.,12.0,0.,12.0,0.,12.0,0.,12.0
1979-07-23 23:59:12.220 ,0,1,0.,12.0,0.,12.0,0.,12.0,0.,12.0
1979-07-23 23:59:24.220 ,0,1,1.,12.0,0.,12.0,0.,12.0,0.,12.0
1979-07-23 23:59:36.220 ,0,0,0.,12.0,0.,12.0,0.,12.0,0.,12.0
1979-07-23 23:59:48.220 ,0,0,1.,12.0,0.,12.0,0.,12.0,0.,12.0
1979-07-24 00:00:00.220 ,0,1,0.,12.0,0.,12.0,0.,12.0,0.,12.0
1979-07-24 00:00:12.220 ,0,1,0.,12.0,0.,12.0,0.,12.0,0.,12.0
